Regional Weather Roundup
Issued by NWS

Home | Current Version | Previous Version | Graphics & Text | Print | Product List | Glossary On
Versions: 1 2 3 4 5 6 7 8 9 10 11 12 13 14 15 16 17 18 19 20 21 22 23 24 25 26 27 28 29 30 31 32 33 34 35 36 37 38 39 40 41 42 43 44 45 46 47 48 49 50
507
ASUS45 KSLC 082310
RWRUT

UTAH REGIONAL WEATHER ROUNDUP
NATIONAL WEATHER SERVICE SALT LAKE CITY UT
400 PM MST THU DEC 08 2016

UTZ001>011-023>025-090000-

NORTHERN UTAH

CITY           SKY/WX    TMP DP  RH WIND       PRES   REMARKS
BRIGHAM CITY     N/A     23  19  83 N3        30.19S VSB 1
DUGWAY         MOCLDY    32  13  44 E6        30.15S WCI  27
HILL AFB       LGT SNOW  23  19  86 NW3       30.14S FOG
LOGAN          LGT SNOW  20  16  84 N3        30.17F FOG
OGDEN          LGT SNOW  24  21  88 N6        30.15F FOG     WCI  17
SALT LAKE CITY CLOUDY    27  22  81 NW8       30.15F WCI  19
WENDOVER       CLOUDY    23  16  74 E3        30.17F
HEBER CITY     CLOUDY    27  19  74 CALM      30.13S

$$

UTZ011>015-024>027-090000-

CENTRAL/NORTHEAST UTAH

CITY           SKY/WX    TMP DP  RH WIND       PRES   REMARKS
PROVO AIRPORT  CLOUDY    31  19  61 CALM      30.18F
MOAB/CANYONLAN CLOUDY    34   4  28 NE3       30.26S
DELTA          CLOUDY    32   9  37 NE6       30.14S WCI  26
PRICE          CLOUDY    25   3  38 S6        30.23R WCI  18
RICHFIELD      CLOUDY    32  10  40 NE6       30.16F WCI  26
ROOSEVELT      CLOUDY    27   5  39 W3        30.27R
VERNAL         CLOUDY    25   3  38 SE7       30.22F WCI  17

$$

UTZ013>016-019>022-027-090000-

SOUTHERN UTAH

CITY           SKY/WX    TMP DP  RH WIND       PRES   REMARKS
BRYCE CANYON   MOSUNNY   30  10  43 SE6       30.20S WCI  24
CEDAR CITY     PTSUNNY   42  22  44 SW15G23   30.15R
MILFORD        PTSUNNY   42  14  32 S21       30.13F
ST GEORGE      MOCLDY    48  14  25 SW5       30.23S
HANKSVILLE     CLEAR     36   1  23 CALM      30.27F
KANAB          SUNNY     48  21  34 S6        30.24F
BLANDING       PTCLDY    35   7  31 CALM      30.33F

$$

REGIONAL REPORTS     COLORADO/ARIZONA

CITY           SKY/WX    TMP DP  RH WIND       PRES   REMARKS
CRAIG, CO      CLOUDY    19  11  70 E9        30.21F WCI   8
GRAND JUNCTION CLOUDY    29   7  39 CALM      30.26S
RIFLE, CO      CLOUDY    24   6  46 N3        30.26F
MONTROSE, CO   CLOUDY    29   8  41 CALM      30.26F
CORTEZ, CO     CLOUDY    38  12  34 SW6       30.27R WCI  33
COLORADO CITY    N/A     50  25  37 E6        30.23S
PAGE, AZ       SUNNY     42   3  19 NE3       30.24S
GRAND CANYON   SUNNY     46  22  38 SW12      30.24S
KINGMAN, AZ    MOSUNNY   55  20  25 SW13      30.20S
FLAGSTAFF, AZ  SUNNY     43  24  47 SW13      30.25R

$$

REGIONAL REPORTS    NEVADA/IDAHO/WYOMING

CITY           SKY/WX    TMP DP  RH WIND       PRES   REMARKS
LAS VEGAS, NV  MOSUNNY   52   5  15 VRB3      30.21S
ELY, NY        PTSUNNY   39  14  36 E7        30.11R WCI  34
ELKO, NV       FLURRIES  28  23  81 CALM      30.07R
POCATELLO, ID  LGT SNOW  19  16  88 NE8       30.15F WCI   9
BURLEY, ID     SNOW      19  16  88 NE15      30.10F VSB 1/2 WCI   5
FORT BRIDGER,  SNOW       6   3  84 CALM      30.14F VSB 1/2
EVANSTON, WY   LGT SNOW  10   3  73 E10       30.08F WCI  -4
ROCK SPRINGS,  LGT SNOW  10   3  73 CALM      30.14S

$$




USA.gov is the U.S. government's official web portal to all federal, state and local government web resources and services.